Weather in Agan

Russia / Khanty-Mansi Autonomous Okrug — Yugra     61°38′24″N   75°05′05″E
temp.,
°C
wind,
m/s
gust,
m/s
humid.,
%
clouds,
%
prec.,
mm/h
press.,
hPa
HPBL,
m
20 june, sun
sun2023:00+10ssw336640 0.0 100329
02:00+8s467259 0.0 100297
05:00+9sse4872100 0.0 1000202
08:00+13s5662100 0.1 998502
11:00+13ese576598 0.2 997437
14:00+14wsw2270100 0.4 99848
17:00+13nw3475100 1.1 100189
20:00+13ne71276100 0.4 1004324
21 june, mon
mon2123:00+11ene9148399 0.4 1008395
02:00+10ne6127599 0.3 1010422
05:00+9nne597343 0.3 1013352
08:00+13nne695115 0.0 10141473
11:00+14n7748100 0.1 10151712
14:00+15nne7848100 0.3 10151780
17:00+14nne785241 0.9 10151548
20:00+13n465657 0.2 1015224
22 june, tue
tue2223:00+9n4467100 0.2 101539
02:00+7nnw337266 0.0 101530
05:00+9n46665 0.0 1015213
08:00+13n46475 0.0 10151696
11:00+14n6641100 0.0 10151961
14:00+13n7644100 0.0 10161793
17:00+14n554496 0.0 10161717
20:00+12nw465498 0.0 1016269
23 june, wed
wed2323:00+11nnw4558100 0.0 101697
02:00+10nnw4760100 0.0 1016164
05:00+10nnw4664100 0.0 1016225
08:00+13n564998 0.0 1016839
11:00+15nnw7735100 0.0 10161928
14:00+16nnw7735100 0.0 10162287
17:00+16n5635100 0.0 10162203
20:00+14ne2350100 0.0 101636
24 june, thu
thu2423:00+10ese1156100 0.0 101510
02:00+8ne596590 0.0 1015172
05:00+9ne466415 0.0 1015279
08:00+12n445517 0.0 10151072
11:00+14nne444989 0.0 10141556
14:00+15n3448100 0.0 10141718
17:00+15n2448100 0.0 10141353
20:00+15w115696 0.0 101320